When you browse on this site, cookies collect data to enhance your experience and personalize the content and advertising you see.
Visit our Privacy Policy to learn more. By continuing to use the site, you agree to this use of cookies and data.
  • In Czech Republic
  • List of Countries
  • For 7 days
  • Water Temperature
  • Weather Map
  • Weather Widgets
  • user-avatar
    Login

    Hourly Weather Novye Maksimovichi

    Today, 4 June, Thursday

    Time Temperature Precipitation Wind Pressure Humidity
    00:00 +8°C° 0 mm 2 mps 738 mmHg 93%
    01:00 +8°C° 0 mm 2 mps 738 mmHg 93%
    02:00 +9°C° 0 mm 1 mps 738 mmHg 94%
    03:00 +9°C° 0 mm 1 mps 738 mmHg 94%
    04:00 +9°C° 0 mm 1 mps 738 mmHg 95%
    05:00 +9°C° 0 mm 1 mps 737 mmHg 95%
    06:00 +10°C° 0 mm 1 mps 737 mmHg 89%
    07:00 +12°C° 0 mm 1 mps 737 mmHg 84%
    08:00 +14°C° 0 mm 2 mps 737 mmHg 79%
    09:00 +15°C° 0.1 mm 2 mps 737 mmHg 74%
    10:00 +14°C° 0.1 mm 3 mps 737 mmHg 69%
    11:00 +15°C° 0.1 mm 4 mps 737 mmHg 63%
    12:00 +17°C° 0.1 mm 4 mps 736 mmHg 62%
    13:00 +17°C° 0.1 mm 3 mps 736 mmHg 61%
    14:00 +18°C° 0.1 mm 3 mps 736 mmHg 60%
    15:00 +17°C° 0.2 mm 3 mps 736 mmHg 63%
    16:00 +17°C° 0.2 mm 3 mps 736 mmHg 66%
    17:00 +17°C° 0.2 mm 4 mps 735 mmHg 70%
    18:00 +14°C° 0.3 mm 3 mps 735 mmHg 77%
    19:00 +14°C° 0.3 mm 2 mps 735 mmHg 83%
    20:00 +12°C° 0.3 mm 2 mps 736 mmHg 90%
    21:00 +10°C° 0 mm 2 mps 736 mmHg 92%
    22:00 +10°C° 0 mm 2 mps 736 mmHg 93%
    23:00 +9°C° 0 mm 2 mps 736 mmHg 94%

    Tomorrow, 5 June, Friday

    Time Temperature Precipitation Wind Pressure Humidity
    00:00 +8°C° 0 mm 2 mps 736 mmHg 95%
    01:00 +8°C° 0 mm 2 mps 736 mmHg 95%
    02:00 +8°C° 0 mm 2 mps 736 mmHg 96%
    03:00 +8°C° 0 mm 2 mps 736 mmHg 96%
    04:00 +8°C° 0 mm 2 mps 736 mmHg 97%
    05:00 +8°C° 0 mm 2 mps 736 mmHg 97%
    06:00 +11°C° 0 mm 1 mps 736 mmHg 91%
    07:00 +12°C° 0 mm 1 mps 737 mmHg 86%
    08:00 +14°C° 0 mm 1 mps 737 mmHg 81%
    09:00 +16°C° 0 mm 2 mps 737 mmHg 72%
    10:00 +18°C° 0 mm 2 mps 737 mmHg 64%
    11:00 +19°C° 0 mm 3 mps 737 mmHg 55%
    12:00 +20°C° 0 mm 3 mps 737 mmHg 55%
    13:00 +21°C° 0 mm 3 mps 737 mmHg 54%
    14:00 +21°C° 0 mm 3 mps 738 mmHg 53%
    15:00 +21°C° 0.1 mm 3 mps 738 mmHg 59%
    16:00 +21°C° 0.1 mm 4 mps 738 mmHg 65%
    17:00 +21°C° 0.1 mm 4 mps 738 mmHg 71%
    18:00 +19°C° 0.4 mm 4 mps 738 mmHg 79%
    19:00 +18°C° 0.4 mm 3 mps 738 mmHg 87%
    20:00 +17°C° 0.4 mm 3 mps 738 mmHg 95%
    21:00 +16°C° 0.1 mm 3 mps 738 mmHg 95%
    22:00 +16°C° 0.1 mm 3 mps 738 mmHg 95%
    23:00 +14°C° 0.1 mm 3 mps 739 mmHg 96%

    Day after tomorrow, 6 June, Saturday

    Time Temperature Precipitation Wind Pressure Humidity
    00:00 +14°C° 0.2 mm 3 mps 739 mmHg 96%
    01:00 +14°C° 0.2 mm 4 mps 739 mmHg 96%
    02:00 +14°C° 0.2 mm 4 mps 739 mmHg 96%
    03:00 +14°C° 0 mm 4 mps 739 mmHg 96%
    04:00 +14°C° 0 mm 3 mps 739 mmHg 96%
    05:00 +14°C° 0 mm 3 mps 739 mmHg 96%
    06:00 +15°C° 0 mm 4 mps 739 mmHg 92%
    07:00 +18°C° 0 mm 4 mps 740 mmHg 88%
    08:00 +19°C° 0 mm 4 mps 740 mmHg 84%
    09:00 +19°C° 0 mm 4 mps 741 mmHg 83%
    10:00 +20°C° 0 mm 5 mps 741 mmHg 82%
    11:00 +20°C° 0 mm 5 mps 741 mmHg 80%
    12:00 +21°C° 0.1 mm 5 mps 742 mmHg 77%
    13:00 +22°C° 0.1 mm 5 mps 742 mmHg 74%
    14:00 +22°C° 0.1 mm 5 mps 742 mmHg 70%
    15:00 +22°C° 0.2 mm 4 mps 742 mmHg 72%
    16:00 +22°C° 0.2 mm 4 mps 742 mmHg 74%
    17:00 +22°C° 0.2 mm 4 mps 742 mmHg 75%
    18:00 +21°C° 0.2 mm 3 mps 743 mmHg 80%
    19:00 +20°C° 0.2 mm 2 mps 743 mmHg 85%
    20:00 +18°C° 0.2 mm 2 mps 744 mmHg 90%
    21:00 +18°C° 0 mm 1 mps 744 mmHg 91%
    22:00 +16°C° 0 mm 1 mps 745 mmHg 92%
    23:00 +15°C° 0 mm 1 mps 745 mmHg 92%

    7 June, Sunday

    Time Temperature Precipitation Wind Pressure Humidity
    00:00 +15°C° 0 mm 1 mps 745 mmHg 92%
    01:00 +14°C° 0 mm 0 mps 746 mmHg 92%
    02:00 +13°C° 0 mm 0 mps 746 mmHg 92%
    03:00 +14°C° 0 mm 1 mps 746 mmHg 93%
    04:00 +15°C° 0 mm 1 mps 746 mmHg 93%
    05:00 +15°C° 0 mm 2 mps 746 mmHg 94%
    06:00 +17°C° 0 mm 2 mps 746 mmHg 90%
    07:00 +19°C° 0 mm 3 mps 746 mmHg 86%
    08:00 +20°C° 0 mm 3 mps 746 mmHg 83%
    09:00 +22°C° 0.3 mm 4 mps 746 mmHg 79%
    10:00 +23°C° 0.3 mm 4 mps 747 mmHg 76%
    11:00 +26°C° 0.3 mm 4 mps 747 mmHg 72%
    12:00 +26°C° 1.4 mm 4 mps 746 mmHg 74%
    13:00 +26°C° 1.4 mm 4 mps 746 mmHg 75%
    14:00 +26°C° 1.4 mm 4 mps 746 mmHg 76%
    15:00 +26°C° 0 mm 4 mps 746 mmHg 73%
    16:00 +26°C° 0 mm 4 mps 746 mmHg 70%
    17:00 +27°C° 0 mm 4 mps 746 mmHg 67%
    18:00 +25°C° 0 mm 4 mps 745 mmHg 72%
    19:00 +23°C° 0 mm 4 mps 745 mmHg 76%
    20:00 +21°C° 0 mm 4 mps 745 mmHg 80%
    21:00 +20°C° 0 mm 4 mps 746 mmHg 83%
    22:00 +20°C° 0 mm 4 mps 746 mmHg 86%
    23:00 +19°C° 0 mm 4 mps 746 mmHg 88%

    8 June, Monday

    Time Temperature Precipitation Wind Pressure Humidity
    00:00 +18°C° 0 mm 3 mps 746 mmHg 90%
    01:00 +18°C° 0 mm 3 mps 746 mmHg 92%
    02:00 +17°C° 0 mm 3 mps 746 mmHg 94%
    03:00 +17°C° 0 mm 3 mps 746 mmHg 94%
    04:00 +17°C° 0 mm 3 mps 746 mmHg 93%
    05:00 +17°C° 0 mm 3 mps 746 mmHg 92%
    06:00 +18°C° 0 mm 3 mps 747 mmHg 88%
    07:00 +20°C° 0 mm 3 mps 747 mmHg 84%
    08:00 +22°C° 0 mm 3 mps 747 mmHg 80%
    09:00 +24°C° 0 mm 3 mps 747 mmHg 73%
    10:00 +26°C° 0 mm 3 mps 747 mmHg 67%
    11:00 +28°C° 0 mm 4 mps 747 mmHg 60%
    12:00 +28°C° 0.1 mm 4 mps 747 mmHg 59%
    13:00 +28°C° 0.1 mm 4 mps 747 mmHg 58%
    14:00 +28°C° 0.1 mm 5 mps 746 mmHg 57%
    15:00 +28°C° 0.2 mm 4 mps 746 mmHg 62%
    16:00 +27°C° 0.2 mm 4 mps 746 mmHg 67%
    17:00 +26°C° 0.2 mm 4 mps 746 mmHg 72%
    18:00 +25°C° 0 mm 3 mps 746 mmHg 77%
    19:00 +24°C° 0 mm 3 mps 746 mmHg 82%
    20:00 +21°C° 0 mm 3 mps 746 mmHg 86%
    21:00 +20°C° 0 mm 3 mps 746 mmHg 89%
    22:00 +20°C° 0 mm 3 mps 746 mmHg 91%
    23:00 +19°C° 0 mm 3 mps 747 mmHg 94%

    9 June, Tuesday

    Time Temperature Precipitation Wind Pressure Humidity
    00:00 +19°C° 0 mm 3 mps 747 mmHg 94%
    01:00 +19°C° 0 mm 3 mps 747 mmHg 94%
    02:00 +18°C° 0 mm 3 mps 747 mmHg 94%
    03:00 +19°C° 0 mm 3 mps 746 mmHg 93%
    04:00 +19°C° 0 mm 3 mps 746 mmHg 92%
    05:00 +19°C° 0 mm 4 mps 746 mmHg 92%
    06:00 +20°C° 0 mm 4 mps 746 mmHg 87%
    07:00 +22°C° 0 mm 4 mps 747 mmHg 82%
    08:00 +25°C° 0 mm 4 mps 747 mmHg 77%
    09:00 +26°C° 0.1 mm 5 mps 747 mmHg 71%
    10:00 +27°C° 0.1 mm 5 mps 747 mmHg 66%
    11:00 +28°C° 0.1 mm 6 mps 747 mmHg 60%
    12:00 +28°C° 0.8 mm 6 mps 747 mmHg 62%
    13:00 +28°C° 0.8 mm 5 mps 747 mmHg 65%
    14:00 +28°C° 0.8 mm 5 mps 746 mmHg 67%
    15:00 +27°C° 0.6 mm 4 mps 746 mmHg 70%
    16:00 +27°C° 0.6 mm 4 mps 746 mmHg 74%
    17:00 +27°C° 0.6 mm 3 mps 746 mmHg 78%
    18:00 +26°C° 0.2 mm 3 mps 746 mmHg 80%
    19:00 +24°C° 0.2 mm 3 mps 746 mmHg 83%
    20:00 +22°C° 0.2 mm 3 mps 746 mmHg 85%
    21:00 +22°C° 0 mm 3 mps 747 mmHg 87%
    22:00 +21°C° 0 mm 3 mps 747 mmHg 89%
    23:00 +20°C° 0 mm 3 mps 747 mmHg 91%
    Show more